When you browse on this site, cookies collect data to enhance your experience and personalize the content and advertising you see.
Visit our Privacy Policy to learn more. By continuing to use the site, you agree to this use of cookies and data.
  • In Austria
  • List of Countries
  • For 7 days
  • Water Temperature
  • Weather Map
  • News
  • Weather Widgets
  • user-avatar
    Login

    Hourly Weather Armawir

    Today, 28 May, Thursday

    Time Temperature Precipitation Wind Pressure Humidity
    00:00 +21°C° 0 mm 1 mps 690 mmHg 48%
    01:00 +20°C° 0 mm 1 mps 690 mmHg 49%
    02:00 +20°C° 0 mm 1 mps 690 mmHg 51%
    03:00 +19°C° 0 mm 1 mps 690 mmHg 50%
    04:00 +20°C° 0 mm 1 mps 690 mmHg 52%
    05:00 +21°C° 0 mm 1 mps 690 mmHg 53%
    06:00 +21°C° 0 mm 1 mps 690 mmHg 55%
    07:00 +23°C° 0 mm 1 mps 690 mmHg 49%
    08:00 +25°C° 0 mm 1 mps 690 mmHg 43%
    09:00 +27°C° 0 mm 1 mps 690 mmHg 37%
    10:00 +28°C° 0 mm 1 mps 690 mmHg 34%
    11:00 +30°C° 0 mm 1 mps 690 mmHg 31%
    12:00 +31°C° 0 mm 1 mps 690 mmHg 28%
    13:00 +32°C° 0 mm 2 mps 690 mmHg 26%
    14:00 +32°C° 0 mm 2 mps 689 mmHg 24%
    15:00 +34°C° 0 mm 2 mps 689 mmHg 22%
    16:00 +32°C° 0.1 mm 2 mps 689 mmHg 26%
    17:00 +32°C° 0.1 mm 2 mps 689 mmHg 30%
    18:00 +31°C° 0.1 mm 2 mps 688 mmHg 34%
    19:00 +29°C° 0.3 mm 2 mps 688 mmHg 38%
    20:00 +26°C° 0.3 mm 2 mps 688 mmHg 42%
    21:00 +24°C° 0.3 mm 2 mps 688 mmHg 46%
    22:00 +23°C° 0 mm 2 mps 688 mmHg 47%
    23:00 +23°C° 0 mm 1 mps 687 mmHg 48%

    Tomorrow, 29 May, Friday

    Time Temperature Precipitation Wind Pressure Humidity
    00:00 +22°C° 0 mm 1 mps 687 mmHg 50%
    01:00 +21°C° 0.1 mm 1 mps 687 mmHg 51%
    02:00 +21°C° 0.1 mm 1 mps 687 mmHg 53%
    03:00 +20°C° 0.1 mm 1 mps 686 mmHg 55%
    04:00 +21°C° 0 mm 1 mps 686 mmHg 55%
    05:00 +22°C° 0 mm 1 mps 686 mmHg 55%
    06:00 +22°C° 0 mm 1 mps 686 mmHg 55%
    07:00 +24°C° 0 mm 1 mps 686 mmHg 48%
    08:00 +26°C° 0 mm 2 mps 686 mmHg 41%
    09:00 +28°C° 0 mm 2 mps 686 mmHg 34%
    10:00 +30°C° 0.1 mm 2 mps 686 mmHg 31%
    11:00 +31°C° 0.1 mm 3 mps 685 mmHg 29%
    12:00 +34°C° 0.1 mm 4 mps 685 mmHg 26%
    13:00 +32°C° 0.2 mm 5 mps 685 mmHg 31%
    14:00 +30°C° 0.2 mm 7 mps 684 mmHg 36%
    15:00 +28°C° 0.2 mm 9 mps 684 mmHg 41%
    16:00 +28°C° 0 mm 6 mps 684 mmHg 41%
    17:00 +29°C° 0 mm 4 mps 684 mmHg 40%
    18:00 +29°C° 0 mm 2 mps 685 mmHg 40%
    19:00 +27°C° 0 mm 1 mps 685 mmHg 42%
    20:00 +25°C° 0 mm 1 mps 685 mmHg 44%
    21:00 +22°C° 0 mm 1 mps 685 mmHg 45%
    22:00 +21°C° 0 mm 2 mps 685 mmHg 45%
    23:00 +21°C° 0 mm 2 mps 684 mmHg 45%

    Day after tomorrow, 30 May, Saturday

    Time Temperature Precipitation Wind Pressure Humidity
    00:00 +21°C° 0 mm 3 mps 684 mmHg 45%
    01:00 +20°C° 0 mm 3 mps 684 mmHg 43%
    02:00 +19°C° 0 mm 3 mps 684 mmHg 41%
    03:00 +19°C° 0 mm 3 mps 684 mmHg 40%
    04:00 +19°C° 0 mm 3 mps 685 mmHg 41%
    05:00 +19°C° 0 mm 3 mps 685 mmHg 41%
    06:00 +18°C° 0 mm 3 mps 685 mmHg 42%
    07:00 +21°C° 0 mm 3 mps 686 mmHg 36%
    08:00 +24°C° 0 mm 3 mps 686 mmHg 29%
    09:00 +26°C° 0 mm 4 mps 686 mmHg 23%
    10:00 +26°C° 0 mm 3 mps 686 mmHg 21%
    11:00 +27°C° 0 mm 2 mps 686 mmHg 19%
    12:00 +28°C° 0 mm 2 mps 686 mmHg 17%
    13:00 +29°C° 0 mm 2 mps 686 mmHg 17%
    14:00 +29°C° 0 mm 2 mps 686 mmHg 17%
    15:00 +30°C° 0 mm 2 mps 686 mmHg 17%
    16:00 +29°C° 0 mm 2 mps 686 mmHg 20%
    17:00 +29°C° 0 mm 2 mps 686 mmHg 24%
    18:00 +29°C° 0 mm 2 mps 686 mmHg 28%
    19:00 +26°C° 0 mm 2 mps 686 mmHg 28%
    20:00 +24°C° 0 mm 3 mps 686 mmHg 29%
    21:00 +21°C° 0 mm 3 mps 687 mmHg 29%
    22:00 +20°C° 0 mm 3 mps 687 mmHg 30%
    23:00 +19°C° 0 mm 3 mps 687 mmHg 32%

    31 May, Sunday

    Time Temperature Precipitation Wind Pressure Humidity
    00:00 +18°C° 0 mm 3 mps 687 mmHg 33%
    01:00 +18°C° 0 mm 3 mps 687 mmHg 36%
    02:00 +17°C° 0 mm 3 mps 687 mmHg 39%
    03:00 +17°C° 0 mm 3 mps 687 mmHg 41%
    04:00 +17°C° 0 mm 3 mps 688 mmHg 44%
    05:00 +17°C° 0 mm 3 mps 688 mmHg 46%
    06:00 +18°C° 0 mm 3 mps 688 mmHg 49%
    07:00 +20°C° 0 mm 3 mps 688 mmHg 43%
    08:00 +22°C° 0 mm 3 mps 689 mmHg 38%
    09:00 +24°C° 0 mm 3 mps 689 mmHg 32%
    10:00 +26°C° 0 mm 2 mps 689 mmHg 29%
    11:00 +27°C° 0 mm 2 mps 689 mmHg 25%
    12:00 +28°C° 0 mm 1 mps 689 mmHg 22%
    13:00 +28°C° 0 mm 1 mps 688 mmHg 21%
    14:00 +29°C° 0 mm 1 mps 688 mmHg 20%
    15:00 +29°C° 0 mm 1 mps 688 mmHg 20%
    16:00 +29°C° 0 mm 1 mps 688 mmHg 22%
    17:00 +29°C° 0 mm 1 mps 687 mmHg 25%
    18:00 +29°C° 0 mm 1 mps 687 mmHg 27%
    19:00 +27°C° 0 mm 1 mps 687 mmHg 30%
    20:00 +24°C° 0 mm 2 mps 687 mmHg 32%
    21:00 +21°C° 0 mm 2 mps 687 mmHg 35%
    22:00 +20°C° 0 mm 2 mps 687 mmHg 39%
    23:00 +19°C° 0 mm 2 mps 687 mmHg 44%

    1 June, Monday

    Time Temperature Precipitation Wind Pressure Humidity
    00:00 +18°C° 0 mm 2 mps 687 mmHg 49%
    01:00 +18°C° 0 mm 2 mps 686 mmHg 50%
    02:00 +17°C° 0 mm 2 mps 686 mmHg 52%
    03:00 +16°C° 0 mm 2 mps 686 mmHg 53%
    04:00 +18°C° 0 mm 1 mps 686 mmHg 54%
    05:00 +19°C° 0 mm 1 mps 686 mmHg 54%
    06:00 +20°C° 0 mm 1 mps 687 mmHg 54%
    07:00 +21°C° 0 mm 1 mps 687 mmHg 49%
    08:00 +23°C° 0 mm 1 mps 687 mmHg 43%
    09:00 +25°C° 0 mm 1 mps 687 mmHg 38%
    10:00 +26°C° 0 mm 2 mps 687 mmHg 34%
    11:00 +28°C° 0 mm 2 mps 687 mmHg 31%
    12:00 +29°C° 0 mm 2 mps 687 mmHg 27%
    13:00 +30°C° 0 mm 2 mps 687 mmHg 25%
    14:00 +31°C° 0 mm 2 mps 687 mmHg 22%
    15:00 +32°C° 0 mm 2 mps 687 mmHg 20%
    16:00 +31°C° 0 mm 3 mps 686 mmHg 23%
    17:00 +30°C° 0 mm 4 mps 686 mmHg 25%
    18:00 +29°C° 0 mm 4 mps 686 mmHg 28%
    19:00 +27°C° 0 mm 4 mps 686 mmHg 29%
    20:00 +26°C° 0 mm 3 mps 686 mmHg 31%
    21:00 +24°C° 0 mm 2 mps 686 mmHg 32%
    22:00 +23°C° 0 mm 2 mps 686 mmHg 34%
    23:00 +22°C° 0 mm 1 mps 685 mmHg 36%

    2 June, Tuesday

    Time Temperature Precipitation Wind Pressure Humidity
    00:00 +21°C° 0 mm 1 mps 685 mmHg 38%
    01:00 +20°C° 0 mm 1 mps 685 mmHg 40%
    02:00 +20°C° 0 mm 1 mps 684 mmHg 42%
    03:00 +19°C° 0 mm 1 mps 684 mmHg 43%
    04:00 +20°C° 0 mm 1 mps 684 mmHg 44%
    05:00 +21°C° 0 mm 1 mps 684 mmHg 45%
    06:00 +22°C° 0 mm 1 mps 684 mmHg 45%
    07:00 +24°C° 0 mm 1 mps 684 mmHg 39%
    08:00 +26°C° 0 mm 2 mps 684 mmHg 33%
    09:00 +28°C° 0 mm 2 mps 684 mmHg 28%
    10:00 +29°C° 0 mm 2 mps 684 mmHg 25%
    11:00 +31°C° 0 mm 3 mps 684 mmHg 22%
    12:00 +33°C° 0 mm 3 mps 684 mmHg 20%
    13:00 +34°C° 0 mm 5 mps 684 mmHg 19%
    14:00 +34°C° 0 mm 7 mps 684 mmHg 18%
    15:00 +35°C° 0 mm 8 mps 684 mmHg 17%
    16:00 +33°C° 0 mm 7 mps 684 mmHg 21%
    17:00 +32°C° 0 mm 6 mps 683 mmHg 24%
    18:00 +30°C° 0 mm 5 mps 683 mmHg 28%
    19:00 +27°C° 0 mm 4 mps 684 mmHg 29%
    20:00 +25°C° 0 mm 4 mps 684 mmHg 30%
    21:00 +22°C° 0 mm 4 mps 685 mmHg 31%
    22:00 +21°C° 0 mm 3 mps 685 mmHg 34%
    23:00 +20°C° 0 mm 3 mps 685 mmHg 38%
    Show more